User: anonymous   Login
Location: Unspecified
(0.0000°N, 0.0000°E)
Time: 02:32:18
(UTC+00:00)
Language:

Explorer 11/Cluster Stage 4 - Orbit

View from above orbital plane
View from above orbital plane
View from above satellite
View from above satellite

Ground track
Ground track

The orbit data is extracted from the following two-line orbital elements,

1   107U 61013A   17203.88893108 +.00000675 +00000-0 +72547-4 0  9994
2   107 028.7877 048.6725 0549168 121.7327 243.7957 14.08341016816108
Epoch (UTC): 22 July 2017 21:20:03
Eccentricity: 0.0549168
inclination: 28.7877°
perigee height: 467 km
apogee height: 1263 km
right ascension of ascending node: 48.6725°
argument of perigee: 121.7327°
revolutions per day: 14.08341016
mean anomaly at epoch: 243.7957°
orbit number at epoch: 81610

The dashed part of the orbit path shows where the satellite is in the earth's shadow,  

DLR